EW8356 Acquaviva Di Montepulciano (siena) IT current weather conditions

sailwx.info

Wind from 050 at 2 knots gusting 7

Air temperature 24.4° C
Dewpoint 15.4° C

Last reported at 2020-Aug-06 18:01 UTC.
Time now 2020-Aug-06 18:28 UTC

Location: N 43°07' E 011°51'.
View on Google Maps.

See reports from other nearby stations

  
Tides and Currents Weather Stations Pressure Air Temp Water Temp Dewpoint Dewpoint Depression Visibility Wind Speed Wind Dir Waves Ship Positions
date/time (UTC)wind fromknots sea level pressurealtimeterstation pressurevisibilityair tempwater tempwave heightnotes
2020-Aug-06 18:01 050 2 gusting 7 24.4
2020-Aug-06 17:56 055 1 gusting 6 24.4
2020-Aug-06 17:51 058 3 gusting 6 25.0
2020-Aug-06 17:46 035 3 gusting 7 25.0
2020-Aug-06 17:41 027 3 gusting 7 25.0
2020-Aug-06 17:36 046 2 gusting 9 25.0
2020-Aug-06 17:31 047 2 gusting 8 25.0
2020-Aug-06 17:26 062 3 gusting 10 25.6
2020-Aug-06 17:21 044 5 gusting 9 25.6
2020-Aug-06 17:16 044 3 gusting 10 25.6
2020-Aug-06 17:11 062 2 gusting 14 25.6
2020-Aug-06 17:06 044 6 gusting 12 25.6
2020-Aug-06 17:01 044 2 gusting 8 26.1
2020-Aug-06 16:56 061 3 gusting 11 26.1
2020-Aug-06 16:51 050 5 gusting 10 26.1
2020-Aug-06 16:46 059 3 gusting 11 26.1
2020-Aug-06 16:41 063 7 gusting 10 26.1
2020-Aug-06 16:36 034 26.1
2020-Aug-06 16:31 072 6 gusting 8 26.1
2020-Aug-06 16:26 046 4 gusting 13 26.7
2020-Aug-06 16:21 040 2 gusting 10 26.7
2020-Aug-06 16:16 031 5 gusting 13 26.7
2020-Aug-06 16:11 074 4 gusting 13 26.7
2020-Aug-06 16:06 074 0 gusting 14 26.7
2020-Aug-06 16:01 046 6 gusting 12 26.7
2020-Aug-06 15:56 090 7 gusting 10 26.7
2020-Aug-06 15:51 091 6 gusting 10 27.2
2020-Aug-06 15:46 049 27.2
2020-Aug-06 15:41 030 3 gusting 6 27.2
2020-Aug-06 15:36 020 1 gusting 6 27.2
2020-Aug-06 15:31 024 6 gusting 9 27.2
2020-Aug-06 15:26 069 2 gusting 7 27.2
2020-Aug-06 15:21 026 0 gusting 7 27.2
2020-Aug-06 15:16 077 0 gusting 7 27.2
2020-Aug-06 15:11 043 2 gusting 9 26.7
2020-Aug-06 15:06 031 5 gusting 11 26.7
2020-Aug-06 15:01 037 4 gusting 8 27.2
2020-Aug-06 14:56 059 26.7
2020-Aug-06 14:51 026 3 gusting 7 26.1
2020-Aug-06 14:46 017 3 gusting 13 26.1
2020-Aug-06 14:41 009 8 gusting 11 26.7
2020-Aug-06 14:36 032 1 gusting 8 26.7
2020-Aug-06 14:31 086 27.2
2020-Aug-06 14:26 055 2 gusting 13 27.2
2020-Aug-06 14:21 027 3 gusting 6 26.7
2020-Aug-06 14:16 020 5 gusting 9 27.2
2020-Aug-06 14:11 083 4 gusting 5 26.7
2020-Aug-06 14:06 034 4 gusting 8 26.1
2020-Aug-06 14:01 028 4 gusting 8 26.1
2020-Aug-06 13:56 047 3 gusting 8 26.7
2020-Aug-06 13:51 030 26.7
2020-Aug-06 13:46 046 2 gusting 8 26.1
2020-Aug-06 13:41 027 4 gusting 7 26.1
2020-Aug-06 13:36 011 6 gusting 9 26.1
2020-Aug-06 13:31 034 5 gusting 7 26.7
2020-Aug-06 13:26 005 1 gusting 8 26.1
2020-Aug-06 13:21 013 4 gusting 8 25.6
2020-Aug-06 13:16 027 7 gusting 8 25.6
2020-Aug-06 13:11 024 25.0
2020-Aug-06 13:06 014 1 gusting 6 25.0
2020-Aug-06 13:01 015 5 gusting 9 25.0
2020-Aug-06 12:56 355 4 gusting 7 25.0
2020-Aug-06 12:51 026 5 gusting 6 25.0
2020-Aug-06 12:46 005 25.0
2020-Aug-06 12:41 005 25.0
2020-Aug-06 12:36 024 25.0
2020-Aug-06 12:31 065 25.0
2020-Aug-06 12:26 059 0 gusting 4 24.4
2020-Aug-06 12:21 033 24.4
2020-Aug-06 12:16 017 6 gusting 6 25.0
2020-Aug-06 12:11 034 1 gusting 7 25.0
2020-Aug-06 12:06 021 5 gusting 6 25.0
2020-Aug-06 12:01 028 1 gusting 5 25.0
2020-Aug-06 11:56 051 24.4
2020-Aug-06 11:51 018 2 gusting 14 24.4
2020-Aug-06 11:46 034 4 gusting 12 24.4
2020-Aug-06 11:41 016 9 gusting 10 24.4
2020-Aug-06 11:36 355 9 gusting 11 24.4
2020-Aug-06 11:31 019 5 gusting 12 24.4
2020-Aug-06 11:26 031 8 gusting 11 24.4
2020-Aug-06 11:21 013 2 gusting 6 24.4
2020-Aug-06 11:16 030 0 gusting 6 24.4
2020-Aug-06 11:11 060 1 gusting 7 24.4
2020-Aug-06 11:06 038 3 gusting 9 24.4
2020-Aug-06 11:01 012 6 gusting 8 24.4
2020-Aug-06 10:56 057 24.4
2020-Aug-06 10:51 082 23.9
2020-Aug-06 10:46 013 4 gusting 7 23.9
2020-Aug-06 10:41 029 0 gusting 5 23.9
2020-Aug-06 10:36 020 3 gusting 8 23.9
2020-Aug-06 10:31 017 2 gusting 6 23.3
2020-Aug-06 10:26 034 6 gusting 12 23.3
2020-Aug-06 10:21 031 9 gusting 12 23.3
2020-Aug-06 10:16 016 7 gusting 9 23.3
2020-Aug-06 10:11 005 6 gusting 10 23.3
2020-Aug-06 10:07 005 23.3
2020-Aug-06 10:01 005 3 gusting 8 23.3
2020-Aug-06 09:56 010 6 gusting 6 23.3
2020-Aug-06 09:51 021 4 gusting 9 22.8
2020-Aug-06 09:46 22.8
2020-Aug-06 09:41 005 7 gusting 11 23.3
2020-Aug-06 09:37 019 6 gusting 13 23.3
2020-Aug-06 09:31 005 1 gusting 14 23.3
2020-Aug-06 09:26 022 3 gusting 10 22.8
2020-Aug-06 09:21 021 6 gusting 9 22.8
2020-Aug-06 09:16 025 2 gusting 11 22.8
2020-Aug-06 09:11 012 1 gusting 10 22.8
2020-Aug-06 09:06 027 6 gusting 9 22.2
2020-Aug-06 09:01 005 6 gusting 8 22.2
2020-Aug-06 08:56 030 6 gusting 11 22.2
2020-Aug-06 08:51 355 3 gusting 12 22.2
2020-Aug-06 08:46 013 5 gusting 12 22.2
2020-Aug-06 08:41 355 8 gusting 13 22.2
2020-Aug-06 08:36 355 4 gusting 15 22.2
2020-Aug-06 08:31 355 6 gusting 15 22.2
2020-Aug-06 08:26 355 14 gusting 15 22.2
2020-Aug-06 08:21 349 5 gusting 12 22.2
2020-Aug-06 08:16 342 10 gusting 13 22.2
2020-Aug-06 08:11 350 6 gusting 10 22.8
2020-Aug-06 08:06 019 6 gusting 9 22.8
2020-Aug-06 08:01 355 1 gusting 6 22.8
2020-Aug-06 07:56 344 4 gusting 8 22.8
2020-Aug-06 07:51 005 0 gusting 6 22.8
2020-Aug-06 07:46 324 2 gusting 6 22.2
2020-Aug-06 07:41 315 1 gusting 6 22.2
2020-Aug-06 07:36 22.2
2020-Aug-06 07:31 031 4 gusting 6 21.7
2020-Aug-06 07:26 009 4 gusting 5 21.7
2020-Aug-06 07:21 348 21.7
2020-Aug-06 07:11 019 21.7
2020-Aug-06 07:06 019 1 gusting 2 21.1
2020-Aug-06 07:01 355 21.1
2020-Aug-06 06:56 355 21.1
2020-Aug-06 06:51 355 21.1
2020-Aug-06 06:46 320 21.1
2020-Aug-06 06:41 319 20.6
2020-Aug-06 06:36 304 20.6
2020-Aug-06 06:31 305 20.6
2020-Aug-06 06:26 313 20.0
2020-Aug-06 06:21 313 20.0
2020-Aug-06 06:16 313 19.4
2020-Aug-06 06:11 305 19.4
2020-Aug-06 06:06 290 18.9
2020-Aug-06 06:01 290 18.9
2020-Aug-06 05:56 290 18.9
2020-Aug-06 05:51 290 18.9
2020-Aug-06 05:46 291 18.9
2020-Aug-06 05:41 291 18.9
2020-Aug-06 05:36 289 18.9
2020-Aug-06 05:31 273 18.3
2020-Aug-06 05:26 273 18.3
2020-Aug-06 05:21 273 18.3
2020-Aug-06 05:16 271 17.8
2020-Aug-06 05:11 271 17.8
2020-Aug-06 05:06 270 17.8
2020-Aug-06 05:01 270 17.2
2020-Aug-06 04:56 270 17.2
2020-Aug-06 04:51 270 17.2
2020-Aug-06 04:46 270 17.2
2020-Aug-06 04:41 270 17.2
2020-Aug-06 04:36 270 17.2
2020-Aug-06 04:31 270 17.2
2020-Aug-06 04:26 270 17.2
2020-Aug-06 04:17 270 17.2
2020-Aug-06 04:12 270 17.8
2020-Aug-06 04:07 269 17.8
2020-Aug-06 04:02 269 17.2
2020-Aug-06 03:57 269 17.2
2020-Aug-06 03:52 269 17.2
2020-Aug-06 03:47 269 17.2
2020-Aug-06 03:42 267 16.7
2020-Aug-06 03:37 267 16.7
2020-Aug-06 03:32 267 16.1
2020-Aug-06 03:27 267 16.1
2020-Aug-06 03:22 270 16.7
2020-Aug-06 03:17 271 17.2
2020-Aug-06 03:12 272 17.2
2020-Aug-06 03:07 272 17.2
2020-Aug-06 03:02 272 17.2
2020-Aug-06 02:57 272 17.2
2020-Aug-06 02:52 272 17.2
2020-Aug-06 02:47 272 16.7
2020-Aug-06 02:42 272 16.7
2020-Aug-06 02:37 275 16.7
2020-Aug-06 02:32 288 16.7
2020-Aug-06 02:27 294 16.7
2020-Aug-06 02:22 294 17.2
2020-Aug-06 02:17 294 17.2
2020-Aug-06 02:12 294 17.2
2020-Aug-06 02:07 294 17.2
2020-Aug-06 02:02 296 17.2
2020-Aug-06 01:57 316 17.2
2020-Aug-06 01:52 317 17.2
2020-Aug-06 01:47 317 17.2
2020-Aug-06 01:42 317 17.2
2020-Aug-06 01:37 317 17.2
2020-Aug-06 01:32 317 17.2
2020-Aug-06 01:27 326 17.8
2020-Aug-06 01:22 342 18.3
2020-Aug-06 01:17 342 18.3
2020-Aug-06 01:12 341 18.3
2020-Aug-06 01:07 335 18.3
2020-Aug-06 01:02 335 17.8
2020-Aug-06 00:57 335 17.8
2020-Aug-06 00:52 335 17.2
2020-Aug-06 00:47 336 17.2
2020-Aug-06 00:42 336 17.8
2020-Aug-06 00:37 340 17.8
2020-Aug-06 00:32 344 17.8
2020-Aug-06 00:27 009 17.8
2020-Aug-06 00:22 009 17.8
2020-Aug-06 00:17 009 17.8
2020-Aug-06 00:12 009 17.8
2020-Aug-06 00:07 009 17.8
2020-Aug-06 00:02 005 18.3
2020-Aug-05 23:57 005 18.3
2020-Aug-05 23:52 010 18.3
2020-Aug-05 23:47 011 18.3
2020-Aug-05 23:42 012 18.3
2020-Aug-05 23:37 18.3
2020-Aug-05 23:32 005 18.3
2020-Aug-05 23:27 005 18.3
2020-Aug-05 23:22 005 18.3
2020-Aug-05 23:17 005 18.3
2020-Aug-05 23:12 338 18.3
2020-Aug-05 23:07 334 18.3
2020-Aug-05 23:02 336 18.3
2020-Aug-05 22:57 338 18.3
2020-Aug-05 22:52 338 18.3
2020-Aug-05 22:47 340 18.3
2020-Aug-05 22:42 009 18.3
2020-Aug-05 22:37 18.3
2020-Aug-05 22:32 005 18.3
2020-Aug-05 22:27 030 18.9
2020-Aug-05 22:22 031 18.9
2020-Aug-05 22:17 032 18.9
2020-Aug-05 22:12 032 18.9
2020-Aug-05 22:07 032 18.9
2020-Aug-05 22:02 032 18.3
2020-Aug-05 21:57 032 18.3
2020-Aug-05 21:52 032 18.3
2020-Aug-05 21:47 032 18.3
2020-Aug-05 21:42 032 18.3
2020-Aug-05 21:37 032 18.9
2020-Aug-05 21:32 032 18.9
2020-Aug-05 21:27 032 18.9
2020-Aug-05 21:22 032 18.9
2020-Aug-05 21:17 032 18.9
2020-Aug-05 21:12 032 19.4
2020-Aug-05 21:07 033 19.4
2020-Aug-05 21:02 032 19.4
2020-Aug-05 20:57 052 19.4
2020-Aug-05 20:52 055 19.4
2020-Aug-05 20:47 057 20.0
2020-Aug-05 20:42 057 20.0
2020-Aug-05 20:37 055 20.0
2020-Aug-05 20:32 056 20.0
2020-Aug-05 20:27 055 20.0
2020-Aug-05 20:22 055 20.0
2020-Aug-05 20:17 055 20.0
2020-Aug-05 20:12 054 20.0
2020-Aug-05 20:07 053 20.0
2020-Aug-05 20:02 052 20.0
2020-Aug-05 19:57 051 20.0
2020-Aug-05 19:52 051 20.0
2020-Aug-05 19:47 045 20.0
2020-Aug-05 19:42 045 20.0
2020-Aug-05 19:37 042 20.0
2020-Aug-05 19:32 034 20.0
2020-Aug-05 19:27 032 20.0
2020-Aug-05 19:22 029 20.0
2020-Aug-05 19:17 032 20.0
2020-Aug-05 19:12 035 20.6
2020-Aug-05 19:07 036 20.6
2020-Aug-05 19:02 035 20.6
2020-Aug-05 18:57 026 0 gusting 5 20.6
2020-Aug-05 18:52 023 3 gusting 6 20.6
2020-Aug-05 18:47 017 4 gusting 6 21.1
2020-Aug-05 18:42 009 3 gusting 6 21.1
2020-Aug-05 18:37 012 2 gusting 6 21.1
2020-Aug-05 18:32 022 5 gusting 7 21.1
2020-Aug-05 18:27 015 5 gusting 8 21.7
2020-Aug-05 18:22 022 5 gusting 8 21.7
2020-Aug-05 18:17 031 6 gusting 9 21.7
2020-Aug-05 18:12 018 5 gusting 7 21.7
2020-Aug-05 18:07 022 4 gusting 8 22.2
2020-Aug-05 18:02 005 5 gusting 7 22.2
2020-Aug-05 17:57 012 6 gusting 7 22.2
2020-Aug-05 17:52 010 4 gusting 8 22.2
2020-Aug-05 17:47 022 2 gusting 6 22.2
2020-Aug-05 17:42 025 4 gusting 6 22.2
2020-Aug-05 17:37 023 4 gusting 7 22.8
2020-Aug-05 17:32 065 6 gusting 8 22.8
2020-Aug-05 17:27 072 4 gusting 8 22.8
2020-Aug-05 17:22 039 4 gusting 9 22.8
2020-Aug-05 17:17 024 9 gusting 10 23.3
2020-Aug-05 17:12 021 6 gusting 9 23.3
2020-Aug-05 17:07 023 6 gusting 7 23.3
2020-Aug-05 17:02 040 4 gusting 8 23.3
2020-Aug-05 16:57 064 2 gusting 8 23.9
2020-Aug-05 16:52 042 3 gusting 7 23.9
2020-Aug-05 16:47 074 7 gusting 9 23.9
2020-Aug-05 16:42 019 7 gusting 10 23.9
2020-Aug-05 16:37 013 7 gusting 11 23.9
2020-Aug-05 16:32 015 11 gusting 12 23.9
2020-Aug-05 16:27 009 6 gusting 12 23.9
2020-Aug-05 16:22 009 9 gusting 13 24.4
2020-Aug-05 16:17 024 8 gusting 13 24.4
2020-Aug-05 16:12 345 8 gusting 13 24.4
2020-Aug-05 16:07 051 4 gusting 13 25.0
2020-Aug-05 16:02 024 5 gusting 10 25.0
2020-Aug-05 15:57 051 6 gusting 11 25.0
2020-Aug-05 15:52 017 6 gusting 10 25.0
2020-Aug-05 15:47 051 3 gusting 7 25.0
2020-Aug-05 15:42 018 3 gusting 4 25.0
2020-Aug-05 15:37 046 25.0
2020-Aug-05 15:32 040 1 gusting 8 24.4
2020-Aug-05 15:27 032 5 gusting 8 24.4
2020-Aug-05 15:22 035 3 gusting 10 24.4
2020-Aug-05 15:17 014 8 gusting 10 25.0
2020-Aug-05 15:12 015 6 gusting 9 24.4
2020-Aug-05 15:07 022 3 gusting 13 24.4
2020-Aug-05 15:02 030 13 gusting 14 24.4
2020-Aug-05 14:57 032 8 gusting 11 24.4
2020-Aug-05 14:52 020 7 gusting 15 24.4
2020-Aug-05 14:47 030 11 gusting 13 24.4
2020-Aug-05 14:42 005 5 gusting 12 24.4
2020-Aug-05 14:37 015 11 gusting 14 24.4
2020-Aug-05 14:32 005 8 gusting 14 24.4
2020-Aug-05 14:27 022 12 gusting 13 23.9
2020-Aug-05 14:22 015 10 gusting 14 23.9
2020-Aug-05 14:17 032 10 gusting 13 23.3
2020-Aug-05 14:12 035 12 gusting 18 23.9
2020-Aug-05 14:07 023 11 gusting 18 24.4
2020-Aug-05 14:02 015 8 gusting 16 24.4
2020-Aug-05 13:57 032 2 gusting 7 24.4
2020-Aug-05 13:52 013 4 gusting 9 24.4
2020-Aug-05 13:47 24.4
2020-Aug-05 13:42 022 25.0
2020-Aug-05 13:37 047 2 gusting 7 25.0
2020-Aug-05 13:32 071 4 gusting 11 24.4
2020-Aug-05 13:27 014 6 gusting 10 25.0
2020-Aug-05 13:22 044 24.4
2020-Aug-05 13:17 019 4 gusting 8 24.4
2020-Aug-05 13:12 005 8 gusting 7 24.4
2020-Aug-05 13:07 068 24.4
2020-Aug-05 13:02 077 25.0
2020-Aug-05 12:57 055 25.0
2020-Aug-05 12:52 057 25.0
2020-Aug-05 12:47 059 1 gusting 9 25.0
2020-Aug-05 12:42 013 6 gusting 6 25.0
2020-Aug-05 12:37 076 0 gusting 6 25.0
2020-Aug-05 12:32 038 25.0
2020-Aug-05 12:27 065 4 gusting 9 24.4
2020-Aug-05 12:22 021 7 gusting 10 24.4
2020-Aug-05 12:17 053 24.4
2020-Aug-05 12:12 075 24.4
2020-Aug-05 11:56 018 4 gusting 9 24.4
2020-Aug-05 11:51 075 25.0
2020-Aug-05 11:46 038 1 gusting 13 25.0
2020-Aug-05 11:41 096 4 gusting 11 25.6
2020-Aug-05 11:36 061 6 gusting 10 25.6
2020-Aug-05 11:31 071 3 gusting 9 25.0
2020-Aug-05 11:26 055 3 gusting 14 25.0
2020-Aug-05 11:21 066 24.4
2020-Aug-05 11:16 086 1 gusting 7 25.0
2020-Aug-05 11:11 034 25.0
2020-Aug-05 11:06 049 6 gusting 12 25.0
2020-Aug-05 11:01 005 6 gusting 7 25.0
2020-Aug-05 10:56 013 4 gusting 10 25.0
2020-Aug-05 10:51 053 1 gusting 11 24.4
2020-Aug-05 10:46 026 3 gusting 9 24.4
2020-Aug-05 10:41 033 1 gusting 9 23.9
2020-Aug-05 10:36 019 2 gusting 14 23.3
2020-Aug-05 10:31 019 8 gusting 13 23.9
2020-Aug-05 10:26 065 0 gusting 6 24.4
2020-Aug-05 10:21 085 23.9
2020-Aug-05 10:16 082 23.9
2020-Aug-05 10:11 061 1 gusting 13 23.9
2020-Aug-05 10:06 048 2 gusting 8 23.9
2020-Aug-05 10:01 355 5 gusting 8 23.9
2020-Aug-05 09:56 020 1 gusting 9 23.9
2020-Aug-05 09:51 033 0 gusting 11 23.3
2020-Aug-05 09:46 036 3 gusting 9 22.2
2020-Aug-05 09:41 045 0 gusting 12 22.2
2020-Aug-05 09:36 046 6 gusting 12 22.2
2020-Aug-05 09:31 062 3 gusting 6 22.2
2020-Aug-05 09:26 018 1 gusting 13 22.8
2020-Aug-05 09:21 024 2 gusting 9 22.8
2020-Aug-05 09:16 042 5 gusting 11 22.8
2020-Aug-05 09:11 063 3 gusting 13 22.8
2020-Aug-05 09:06 044 7 gusting 13 22.2
2020-Aug-05 09:01 042 6 gusting 9 22.2
2020-Aug-05 08:56 028 11 gusting 11 22.2
2020-Aug-05 08:51 032 6 gusting 10 22.2
2020-Aug-05 08:46 032 5 gusting 11 22.2
2020-Aug-05 08:41 016 6 gusting 12 22.2
2020-Aug-05 08:36 012 3 gusting 5 22.2
2020-Aug-05 08:31 032 2 gusting 6 21.7
2020-Aug-05 08:26 023 5 gusting 7 22.2
2020-Aug-05 08:21 034 21.7
2020-Aug-05 08:16 030 3 gusting 4 21.7
2020-Aug-05 08:11 351 21.1
2020-Aug-05 08:06 030 21.1
2020-Aug-05 08:01 096 0 gusting 4 21.1
2020-Aug-05 07:56 036 21.1
2020-Aug-05 07:51 063 4 gusting 7 21.1
2020-Aug-05 07:46 053 21.1
2020-Aug-05 07:41 059 2 gusting 6 20.6
2020-Aug-05 07:36 024 5 gusting 9 20.6
2020-Aug-05 07:31 049 3 gusting 6 20.6
2020-Aug-05 07:26 045 20.6
2020-Aug-05 07:21 011 1 gusting 6 20.6
2020-Aug-05 07:16 011 20.0
2020-Aug-05 07:11 017 0 gusting 7 20.0
2020-Aug-05 07:06 024 5 gusting 7 19.4
2020-Aug-05 07:01 349 19.4
2020-Aug-05 06:56 005 4 gusting 7 19.4
2020-Aug-05 06:51 351 2 gusting 6 19.4
2020-Aug-05 06:46 015 1 gusting 6 18.9
2020-Aug-05 06:41 339 4 gusting 4 18.9
2020-Aug-05 06:36 320 18.9
2020-Aug-05 06:31 344 18.9
2020-Aug-05 06:26 338 4 gusting 4 18.3
2020-Aug-05 06:21 18.3
2020-Aug-05 06:16 325 4 gusting 6 18.3
2020-Aug-05 06:11 344 4 gusting 5 18.3
2020-Aug-05 06:06 336 2 gusting 3 18.3
2020-Aug-05 06:01 321 17.8
2020-Aug-05 05:56 325 17.8
2020-Aug-05 05:51 325 17.8
2020-Aug-05 05:46 325 17.8
2020-Aug-05 05:41 325 17.8
2020-Aug-05 05:36 325 17.2
2020-Aug-05 05:31 325 17.2
2020-Aug-05 05:26 325 17.2
2020-Aug-05 05:21 325 16.7
2020-Aug-05 05:16 323 16.7
2020-Aug-05 05:11 320 16.7
2020-Aug-05 05:06 324 16.7
2020-Aug-05 05:01 323 16.7
2020-Aug-05 04:56 325 16.7
2020-Aug-05 04:51 324 16.7
2020-Aug-05 04:46 321 16.7
2020-Aug-05 04:41 319 16.7
2020-Aug-05 04:36 307 16.7
2020-Aug-05 04:31 304 16.7
2020-Aug-05 04:26 304 16.7
2020-Aug-05 04:21 304 16.7
2020-Aug-05 04:16 302 16.7
2020-Aug-05 04:11 302 16.7
2020-Aug-05 04:06 302 16.7
2020-Aug-05 04:01 304 16.7
2020-Aug-05 03:56 304 16.7
2020-Aug-05 03:51 306 16.7
2020-Aug-05 03:46 302 16.7
2020-Aug-05 03:41 305 16.7
2020-Aug-05 03:36 313 16.7
2020-Aug-05 03:31 314 16.7
2020-Aug-05 03:26 315 17.2
2020-Aug-05 03:21 315 17.2
2020-Aug-05 03:16 315 17.2
2020-Aug-05 03:11 315 17.2
2020-Aug-05 03:06 315 17.2
2020-Aug-05 03:01 315 16.7
2020-Aug-05 02:56 315 17.2
2020-Aug-05 02:51 315 17.2
2020-Aug-05 02:46 315 17.2
2020-Aug-05 02:41 315 17.2
2020-Aug-05 02:36 315 17.2
2020-Aug-05 02:31 315 17.2
2020-Aug-05 02:26 315 17.2
2020-Aug-05 02:21 315 17.2
2020-Aug-05 02:16 315 17.2
2020-Aug-05 02:11 315 17.2
2020-Aug-05 02:06 315 17.2
2020-Aug-05 02:01 315 17.2
2020-Aug-05 01:56 315 17.2
2020-Aug-05 01:51 315 17.2
2020-Aug-05 01:46 315 17.2
2020-Aug-05 01:41 315 17.2
2020-Aug-05 01:36 315 17.2
2020-Aug-05 01:31 315 17.2
2020-Aug-05 01:26 315 17.2
2020-Aug-05 01:21 315 17.2
2020-Aug-05 01:16 315 17.2
2020-Aug-05 01:11 315 17.2
2020-Aug-05 01:06 315 17.2
2020-Aug-05 01:01 315 17.2
2020-Aug-05 00:56 315 17.8
2020-Aug-05 00:51 315 17.8
2020-Aug-05 00:46 315 17.2
2020-Aug-05 00:41 315 17.2
2020-Aug-05 00:36 314 17.2
2020-Aug-05 00:31 314 17.2
2020-Aug-05 00:26 314 17.2
2020-Aug-05 00:21 314 17.2
2020-Aug-05 00:16 315 17.2
2020-Aug-05 00:11 313 17.2
2020-Aug-05 00:06 313 17.2
2020-Aug-05 00:01 331 17.2
2020-Aug-04 23:56 332 17.2
2020-Aug-04 23:51 332 17.2
2020-Aug-04 23:46 332 17.2
2020-Aug-04 23:41 332 17.2
2020-Aug-04 23:36 332 17.2
2020-Aug-04 23:31 332 17.2
2020-Aug-04 23:26 332 17.2
2020-Aug-04 23:21 332 17.2
2020-Aug-04 23:16 332 17.8
2020-Aug-04 23:11 331 17.8
2020-Aug-04 23:06 334 17.8
2020-Aug-04 23:01 340 17.8
2020-Aug-04 22:56 342 17.8
2020-Aug-04 22:51 340 17.8
2020-Aug-04 22:46 340 17.8
2020-Aug-04 22:41 339 17.8
2020-Aug-04 22:36 340 17.8
2020-Aug-04 22:31 340 17.8
2020-Aug-04 22:26 340 17.8
2020-Aug-04 22:21 340 17.8
2020-Aug-04 22:16 340 17.8
2020-Aug-04 22:11 340 18.3
2020-Aug-04 22:06 340 18.3
2020-Aug-04 22:01 340 18.3
2020-Aug-04 21:56 340 18.3
2020-Aug-04 21:52 340 18.3
2020-Aug-04 21:46 348 18.3
2020-Aug-04 21:41 346 18.3
2020-Aug-04 21:36 330 18.3
2020-Aug-04 21:31 335 18.3
2020-Aug-04 21:26 334 1 gusting 4 18.3
2020-Aug-04 21:21 340 2 gusting 6 18.3
2020-Aug-04 21:16 319 5 gusting 6 18.9
2020-Aug-04 21:11 330 3 gusting 6 18.9
2020-Aug-04 21:06 327 4 gusting 7 18.9
2020-Aug-04 21:01 317 6 gusting 6 18.9
2020-Aug-04 20:56 315 4 gusting 6 18.9
2020-Aug-04 20:51 295 18.9
2020-Aug-04 20:46 284 18.3
2020-Aug-04 20:41 277 18.3
2020-Aug-04 20:36 259 18.3
2020-Aug-04 20:31 259 18.3
2020-Aug-04 20:26 259 18.3
2020-Aug-04 20:21 259 18.3
2020-Aug-04 20:16 259 1 gusting 5 18.3
2020-Aug-04 20:11 252 2 gusting 3 18.3
2020-Aug-04 20:06 248 1 gusting 4 18.9
2020-Aug-04 20:01 277 1 gusting 3 18.9
2020-Aug-04 19:56 293 1 gusting 4 18.9
2020-Aug-04 19:51 330 0 gusting 4 18.9
2020-Aug-04 19:46 331 2 gusting 6 18.9
2020-Aug-04 19:41 334 3 gusting 6 18.3
2020-Aug-04 19:36 334 18.3
2020-Aug-04 19:31 331 18.3
2020-Aug-04 19:26 350 1 gusting 6 18.3
2020-Aug-04 19:21 336 4 gusting 6 18.3
2020-Aug-04 19:16 326 6 gusting 7 18.3
2020-Aug-04 19:11 339 2 gusting 6 18.3
2020-Aug-04 19:06 331 4 gusting 6 18.3
2020-Aug-04 19:01 328 3 gusting 6 18.9
2020-Aug-04 18:56 336 3 gusting 6 18.9
2020-Aug-04 18:51 324 4 gusting 9 18.9
2020-Aug-04 18:46 294 5 gusting 9 18.9
2020-Aug-04 18:41 298 3 gusting 6 18.9
2020-Aug-04 18:36 277 3 gusting 5 18.9
2020-Aug-04 18:31 279 3 gusting 3 18.9
2020-Aug-04 18:26 284 2 gusting 4 19.4
2020-Aug-04 18:21 322 2 gusting 6 18.9
2020-Aug-04 18:16 351 3 gusting 6 18.9
2020-Aug-04 18:11 350 6 gusting 7 18.9
2020-Aug-04 18:06 331 5 gusting 7 18.9
2020-Aug-04 18:01 326 6 gusting 6 19.4